Year,Month,Day,Hour,Minute,Value (Times are PST for windspeed in km/hr)
2012,01,25,00,00,13.30
2012,01,25,00,01,9.70
2012,01,25,00,02,11.40
2012,01,25,00,03,13.70
2012,01,25,00,04,17.20
2012,01,25,00,05,14.10
2012,01,25,00,06,16.80
2012,01,25,00,07,18.70
2012,01,25,00,08,21.70
2012,01,25,00,09,16.50
2012,01,25,00,10,17.30
2012,01,25,00,11,15.00
2012,01,25,00,12,22.50
2012,01,25,00,13,19.80
2012,01,25,00,14,9.00
2012,01,25,00,15,19.40
2012,01,25,00,16,19.60
2012,01,25,00,17,13.60
2012,01,25,00,18,16.70
2012,01,25,00,19,26.10
2012,01,25,00,20,12.70
2012,01,25,00,21,19.20
2012,01,25,00,22,19.50
2012,01,25,00,23,17.70
2012,01,25,00,24,16.90
2012,01,25,00,25,16.70
2012,01,25,00,26,11.40
2012,01,25,00,27,21.70
2012,01,25,00,28,17.10
2012,01,25,00,29,13.40
2012,01,25,00,30,23.60
2012,01,25,00,31,22.60
2012,01,25,00,32,19.50
2012,01,25,00,33,23.90
2012,01,25,00,34,25.40
2012,01,25,00,35,25.40
2012,01,25,00,36,24.40
2012,01,25,00,37,35.30
2012,01,25,00,38,25.90
2012,01,25,00,39,38.70
2012,01,25,00,40,25.90
2012,01,25,00,41,28.50
2012,01,25,00,42,27.10
2012,01,25,00,43,28.20
2012,01,25,00,44,29.70
2012,01,25,00,45,29.00
2012,01,25,00,46,27.10
2012,01,25,00,47,25.70
2012,01,25,00,48,16.60
2012,01,25,00,49,20.50
2012,01,25,00,50,23.50
2012,01,25,00,51,20.70
2012,01,25,00,52,18.10
2012,01,25,00,53,17.30
2012,01,25,00,54,30.00
2012,01,25,00,55,22.10
2012,01,25,00,56,29.50
2012,01,25,00,57,32.30
2012,01,25,00,58,22.80
2012,01,25,00,59,26.30
2012,01,25,01,00,22.10
2012,01,25,01,01,28.50
2012,01,25,01,02,25.30
2012,01,25,01,03,29.10
2012,01,25,01,04,22.30
2012,01,25,01,05,22.40
2012,01,25,01,06,20.10
2012,01,25,01,07,14.40
2012,01,25,01,08,22.50
2012,01,25,01,09,19.70
2012,01,25,01,10,16.30
2012,01,25,01,11,19.70
2012,01,25,01,12,18.70
2012,01,25,01,13,15.10
2012,01,25,01,14,17.40
2012,01,25,01,15,19.90
2012,01,25,01,16,15.60
2012,01,25,01,17,17.90
2012,01,25,01,18,29.80
2012,01,25,01,19,18.50
2012,01,25,01,20,20.00
2012,01,25,01,21,11.60
2012,01,25,01,22,20.80
2012,01,25,01,23,18.40
2012,01,25,01,24,22.80
2012,01,25,01,25,20.50
2012,01,25,01,26,20.60
2012,01,25,01,27,28.40
2012,01,25,01,28,28.40
2012,01,25,01,29,20.30
2012,01,25,01,30,14.80
2012,01,25,01,31,16.00
2012,01,25,01,32,22.90
2012,01,25,01,33,17.90
2012,01,25,01,34,24.40
2012,01,25,01,35,20.20
2012,01,25,01,36,18.60
2012,01,25,01,37,23.80
2012,01,25,01,38,26.30
2012,01,25,01,39,17.20
2012,01,25,01,40,23.30
2012,01,25,01,41,19.60
2012,01,25,01,42,25.50
2012,01,25,01,43,28.30
2012,01,25,01,44,28.60
2012,01,25,01,45,28.90
2012,01,25,01,46,40.60
2012,01,25,01,47,26.90
2012,01,25,01,48,20.00
2012,01,25,01,49,24.30
2012,01,25,01,50,28.60
2012,01,25,01,51,21.50
2012,01,25,01,52,27.40
2012,01,25,01,53,20.20
2012,01,25,01,54,16.10
2012,01,25,01,55,14.60
2012,01,25,01,56,23.90
2012,01,25,01,57,23.20
2012,01,25,01,58,15.60
2012,01,25,01,59,21.90
2012,01,25,02,00,24.00
2012,01,25,02,01,25.50
2012,01,25,02,02,29.30
2012,01,25,02,03,32.70
2012,01,25,02,04,24.90
2012,01,25,02,05,23.90
2012,01,25,02,06,20.60
2012,01,25,02,07,27.80
2012,01,25,02,08,26.80
2012,01,25,02,09,25.70
2012,01,25,02,10,29.90
2012,01,25,02,11,28.80
2012,01,25,02,12,22.50
2012,01,25,02,13,26.70
2012,01,25,02,14,26.20
2012,01,25,02,15,31.70
2012,01,25,02,16,28.00
2012,01,25,02,17,16.70
2012,01,25,02,18,22.50
2012,01,25,02,19,18.30
2012,01,25,02,20,19.00
2012,01,25,02,21,15.60
2012,01,25,02,22,9.60
2012,01,25,02,23,23.70
2012,01,25,02,24,23.30
2012,01,25,02,25,23.50
2012,01,25,02,26,20.30
2012,01,25,02,27,25.10
2012,01,25,02,28,27.90
2012,01,25,02,29,32.40
2012,01,25,02,30,23.00
2012,01,25,02,31,31.30
2012,01,25,02,32,27.60
2012,01,25,02,33,33.80
2012,01,25,02,34,26.30
2012,01,25,02,35,23.80
2012,01,25,02,36,20.60
2012,01,25,02,37,22.00
2012,01,25,02,38,22.60
2012,01,25,02,39,23.40
2012,01,25,02,40,28.20
2012,01,25,02,41,21.20
2012,01,25,02,42,26.40
2012,01,25,02,43,21.00
2012,01,25,02,44,18.30
2012,01,25,02,45,21.40
2012,01,25,02,46,22.00
2012,01,25,02,47,21.00
2012,01,25,02,48,22.00
2012,01,25,02,49,22.80
2012,01,25,02,50,16.40
2012,01,25,02,51,15.90
2012,01,25,02,52,12.90
2012,01,25,02,53,15.30
2012,01,25,02,54,20.10
2012,01,25,02,55,13.00
2012,01,25,02,56,11.50
2012,01,25,02,57,19.70
2012,01,25,02,58,10.90
2012,01,25,02,59,18.40
2012,01,25,03,00,13.30
2012,01,25,03,01,15.10
2012,01,25,03,02,21.60
2012,01,25,03,03,17.20
2012,01,25,03,04,13.80
2012,01,25,03,05,16.10
2012,01,25,03,06,17.90
2012,01,25,03,07,14.60
2012,01,25,03,08,12.30
2012,01,25,03,09,11.80
2012,01,25,03,10,22.90
2012,01,25,03,11,15.00
2012,01,25,03,12,15.40
2012,01,25,03,13,12.40
2012,01,25,03,14,11.90
2012,01,25,03,15,15.10
2012,01,25,03,16,15.80
2012,01,25,03,17,12.60
2012,01,25,03,18,14.10
2012,01,25,03,19,10.40
2012,01,25,03,20,15.30
2012,01,25,03,21,14.10
2012,01,25,03,22,16.30
2012,01,25,03,23,9.60
2012,01,25,03,24,10.60
2012,01,25,03,25,14.10
2012,01,25,03,26,11.40
2012,01,25,03,27,8.40
2012,01,25,03,28,9.40
2012,01,25,03,29,13.50
2012,01,25,03,30,17.10
2012,01,25,03,31,11.70
2012,01,25,03,32,14.20
2012,01,25,03,33,6.40
2012,01,25,03,34,7.00
2012,01,25,03,35,5.90
2012,01,25,03,36,6.00
2012,01,25,03,37,7.90
2012,01,25,03,38,4.30
2012,01,25,03,39,11.90
2012,01,25,03,40,8.00
2012,01,25,03,41,8.30
2012,01,25,03,42,7.00
2012,01,25,03,43,9.10
2012,01,25,03,44,7.20
2012,01,25,03,45,7.30
2012,01,25,03,46,9.40
2012,01,25,03,47,5.50
2012,01,25,03,48,6.20
2012,01,25,03,49,10.10
2012,01,25,03,50,14.20
2012,01,25,03,51,11.40
2012,01,25,03,52,12.00
2012,01,25,03,53,4.30
2012,01,25,03,54,5.10
2012,01,25,03,55,8.20
2012,01,25,03,56,5.50
2012,01,25,03,57,4.70
2012,01,25,03,58,11.20
2012,01,25,03,59,7.10
2012,01,25,04,00,9.30
2012,01,25,04,01,8.40
2012,01,25,04,02,3.40
2012,01,25,04,03,6.50
2012,01,25,04,04,6.30
2012,01,25,04,05,5.50
2012,01,25,04,06,6.90
2012,01,25,04,07,3.50
2012,01,25,04,08,2.50
2012,01,25,04,09,14.80
2012,01,25,04,10,18.70
2012,01,25,04,11,6.30
2012,01,25,04,12,9.40
2012,01,25,04,13,5.90
2012,01,25,04,14,4.70
2012,01,25,04,15,16.50
2012,01,25,04,16,6.80
2012,01,25,04,17,7.20
2012,01,25,04,18,9.10
2012,01,25,04,19,14.30
2012,01,25,04,20,17.60
2012,01,25,04,21,9.90
2012,01,25,04,22,11.70
2012,01,25,04,23,9.10
2012,01,25,04,24,6.10
2012,01,25,04,25,6.00
2012,01,25,04,26,6.80
2012,01,25,04,27,10.50
2012,01,25,04,28,7.70
2012,01,25,04,29,5.40
2012,01,25,04,30,6.00
2012,01,25,04,31,4.50
2012,01,25,04,32,4.20
2012,01,25,04,33,2.90
2012,01,25,04,34,4.70
2012,01,25,04,35,4.10
2012,01,25,04,36,4.30
2012,01,25,04,37,7.50
2012,01,25,04,38,6.40
2012,01,25,04,39,7.00
2012,01,25,04,40,12.70
2012,01,25,04,41,4.90
2012,01,25,04,42,5.10
2012,01,25,04,43,9.00
2012,01,25,04,44,8.20
2012,01,25,04,45,5.40
2012,01,25,04,46,5.80
2012,01,25,04,47,6.00
2012,01,25,04,48,5.30
2012,01,25,04,49,4.30
2012,01,25,04,50,5.00
2012,01,25,04,51,6.30
2012,01,25,04,52,10.10
2012,01,25,04,53,8.60
2012,01,25,04,54,6.20
2012,01,25,04,55,4.00
2012,01,25,04,56,4.40
2012,01,25,04,57,3.50
2012,01,25,04,58,7.70
2012,01,25,04,59,6.90
2012,01,25,05,00,5.80
2012,01,25,05,01,3.20
2012,01,25,05,02,2.30
2012,01,25,05,03,0.90
2012,01,25,05,04,4.70
2012,01,25,05,05,4.60
2012,01,25,05,06,4.30
2012,01,25,05,07,8.40
2012,01,25,05,08,11.60
2012,01,25,05,09,9.90
2012,01,25,05,10,11.40
2012,01,25,05,11,8.00
2012,01,25,05,12,6.50
2012,01,25,05,13,6.50
2012,01,25,05,14,9.70
2012,01,25,05,15,10.60
2012,01,25,05,16,9.10
2012,01,25,05,17,9.90
2012,01,25,05,18,13.00
2012,01,25,05,19,7.60
2012,01,25,05,20,13.40
2012,01,25,05,21,8.50
2012,01,25,05,22,14.00
2012,01,25,05,23,12.60
2012,01,25,05,24,8.30
2012,01,25,05,25,9.60
2012,01,25,05,26,9.10
2012,01,25,05,27,11.10
2012,01,25,05,28,10.80
2012,01,25,05,29,8.10
2012,01,25,05,30,9.70
2012,01,25,05,31,11.30
2012,01,25,05,32,14.00
2012,01,25,05,33,17.50
2012,01,25,05,34,9.40
2012,01,25,05,35,9.50
2012,01,25,05,36,3.70
2012,01,25,05,37,10.90
2012,01,25,05,38,6.60
2012,01,25,05,39,5.30
2012,01,25,05,40,4.20
2012,01,25,05,41,4.90
2012,01,25,05,42,4.40
2012,01,25,05,43,8.40
2012,01,25,05,44,10.10
2012,01,25,05,45,10.50
2012,01,25,05,46,11.50
2012,01,25,05,47,10.80
2012,01,25,05,48,5.30
2012,01,25,05,49,4.70
2012,01,25,05,50,6.40
2012,01,25,05,51,12.00
2012,01,25,05,52,8.60
2012,01,25,05,53,9.70
2012,01,25,05,54,15.00
2012,01,25,05,55,8.90
2012,01,25,05,56,5.60
2012,01,25,05,57,10.90
2012,01,25,05,58,10.50
2012,01,25,05,59,6.50
2012,01,25,06,00,7.40
2012,01,25,06,01,5.10
2012,01,25,06,02,5.60
2012,01,25,06,03,7.30
2012,01,25,06,04,8.60
2012,01,25,06,05,7.50
2012,01,25,06,06,6.20
2012,01,25,06,07,5.30
2012,01,25,06,08,3.50
2012,01,25,06,09,7.10
2012,01,25,06,10,5.10
2012,01,25,06,11,5.50
2012,01,25,06,12,6.00
2012,01,25,06,13,5.80
2012,01,25,06,14,3.40
2012,01,25,06,15,2.40
2012,01,25,06,16,5.60
2012,01,25,06,17,5.30
2012,01,25,06,18,6.40
2012,01,25,06,19,4.30
2012,01,25,06,20,1.70
2012,01,25,06,21,6.10
2012,01,25,06,22,10.30
2012,01,25,06,23,8.40
2012,01,25,06,24,4.00
2012,01,25,06,25,8.10
2012,01,25,06,26,5.10
2012,01,25,06,27,4.70
2012,01,25,06,28,3.00
2012,01,25,06,29,3.40
2012,01,25,06,30,4.70
2012,01,25,06,31,2.00
2012,01,25,06,32,4.30
2012,01,25,06,33,8.10
2012,01,25,06,34,6.00
2012,01,25,06,35,4.20
2012,01,25,06,36,4.20
2012,01,25,06,37,4.70
2012,01,25,06,38,5.80
2012,01,25,06,39,4.50
2012,01,25,06,40,2.80
2012,01,25,06,41,2.60
2012,01,25,06,42,3.70
2012,01,25,06,43,3.70
2012,01,25,06,44,3.50
2012,01,25,06,45,3.90
2012,01,25,06,46,6.00
2012,01,25,06,47,6.20
2012,01,25,06,48,5.20
2012,01,25,06,49,5.00
2012,01,25,06,50,4.80
2012,01,25,06,51,2.50
2012,01,25,06,52,1.30
2012,01,25,06,53,0.70
2012,01,25,06,54,1.10
2012,01,25,06,55,1.50
2012,01,25,06,56,2.60
2012,01,25,06,57,0.90
2012,01,25,06,58,1.30
2012,01,25,06,59,2.60
2012,01,25,07,00,1.70
2012,01,25,07,01,0.10
2012,01,25,07,02,1.40
2012,01,25,07,03,0.20
2012,01,25,07,04,0.90
2012,01,25,07,05,2.60
2012,01,25,07,06,5.60
2012,01,25,07,07,2.10
2012,01,25,07,08,1.30
2012,01,25,07,09,2.20
2012,01,25,07,10,1.30
2012,01,25,07,11,2.50
2012,01,25,07,12,1.50
2012,01,25,07,13,1.50
2012,01,25,07,14,1.70
2012,01,25,07,15,1.30
2012,01,25,07,16,1.20
2012,01,25,07,17,1.70
2012,01,25,07,18,0.40
2012,01,25,07,19,0.60
2012,01,25,07,20,1.20
2012,01,25,07,21,1.50
2012,01,25,07,22,1.00
2012,01,25,07,23,1.60
2012,01,25,07,24,1.50
2012,01,25,07,25,2.70
2012,01,25,07,26,4.60
2012,01,25,07,27,6.00
2012,01,25,07,28,8.50
2012,01,25,07,29,6.60
2012,01,25,07,30,4.70
2012,01,25,07,31,3.90
2012,01,25,07,32,4.40
2012,01,25,07,33,3.30
2012,01,25,07,34,2.60
2012,01,25,07,35,7.30
2012,01,25,07,36,4.70
2012,01,25,07,37,7.50
2012,01,25,07,38,7.50
2012,01,25,07,39,6.50
2012,01,25,07,40,4.30
2012,01,25,07,41,4.00
2012,01,25,07,42,2.60
2012,01,25,07,43,7.20
2012,01,25,07,44,6.10
2012,01,25,07,45,6.00
2012,01,25,07,46,6.40
2012,01,25,07,47,9.90
2012,01,25,07,48,12.80
2012,01,25,07,49,12.20
2012,01,25,07,50,10.10
2012,01,25,07,51,10.90
2012,01,25,07,52,11.70
2012,01,25,07,53,8.80
2012,01,25,07,54,15.10
2012,01,25,07,55,6.20
2012,01,25,07,56,9.70
2012,01,25,07,57,17.10
2012,01,25,07,58,7.60
2012,01,25,07,59,10.50
2012,01,25,08,00,7.60
2012,01,25,08,01,9.20
2012,01,25,08,02,5.20
2012,01,25,08,03,4.30
2012,01,25,08,04,3.90
2012,01,25,08,05,3.30
2012,01,25,08,06,2.60
2012,01,25,08,07,4.30
2012,01,25,08,08,5.40
2012,01,25,08,09,3.50
2012,01,25,08,10,3.10
2012,01,25,08,11,5.20
2012,01,25,08,12,12.50
2012,01,25,08,13,3.10
2012,01,25,08,14,3.90
2012,01,25,08,15,4.50
2012,01,25,08,16,3.90
2012,01,25,08,17,2.30
2012,01,25,08,18,3.30
2012,01,25,08,19,2.70
2012,01,25,08,20,4.20
2012,01,25,08,21,3.30
2012,01,25,08,22,3.50
2012,01,25,08,23,1.10
2012,01,25,08,24,2.80
2012,01,25,08,25,2.30
2012,01,25,08,26,2.20
2012,01,25,08,27,1.90
2012,01,25,08,28,1.10
2012,01,25,08,29,1.30
2012,01,25,08,30,1.10
2012,01,25,08,31,2.40
2012,01,25,08,32,2.10
2012,01,25,08,33,3.10
2012,01,25,08,34,1.60
2012,01,25,08,35,2.70
2012,01,25,08,36,3.50
2012,01,25,08,37,3.90
2012,01,25,08,38,6.50
2012,01,25,08,39,6.30
2012,01,25,08,40,3.60
2012,01,25,08,41,4.30
2012,01,25,08,42,1.70
2012,01,25,08,43,2.20
2012,01,25,08,44,6.70
2012,01,25,08,45,4.30
2012,01,25,08,46,4.10
2012,01,25,08,47,9.80
2012,01,25,08,48,6.60
2012,01,25,08,49,4.70
2012,01,25,08,50,5.30
2012,01,25,08,51,3.60
2012,01,25,08,52,2.20
2012,01,25,08,53,7.00
2012,01,25,08,54,5.50
2012,01,25,08,55,1.50
2012,01,25,08,56,3.00
2012,01,25,08,57,1.00
2012,01,25,08,58,1.90
2012,01,25,08,59,1.40
2012,01,25,09,00,1.80
2012,01,25,09,01,3.20
2012,01,25,09,02,5.40
2012,01,25,09,03,4.80
2012,01,25,09,04,4.50
2012,01,25,09,05,4.30
2012,01,25,09,06,2.10
2012,01,25,09,07,1.90
2012,01,25,09,08,6.90
2012,01,25,09,09,4.50
2012,01,25,09,10,9.20
2012,01,25,09,11,5.50
2012,01,25,09,12,6.70
2012,01,25,09,13,8.10
2012,01,25,09,14,5.00
2012,01,25,09,15,1.20
2012,01,25,09,16,5.00
2012,01,25,09,17,2.30
2012,01,25,09,18,1.40
2012,01,25,09,19,0.40
2012,01,25,09,20,3.30
2012,01,25,09,21,3.70
2012,01,25,09,22,2.30
2012,01,25,09,23,3.40
2012,01,25,09,24,2.20
2012,01,25,09,25,4.20
2012,01,25,09,26,4.00
2012,01,25,09,27,4.10
2012,01,25,09,28,3.20
2012,01,25,09,29,3.00
2012,01,25,09,30,2.50
2012,01,25,09,31,2.00
2012,01,25,09,32,4.70
2012,01,25,09,33,4.70
2012,01,25,09,34,4.80
2012,01,25,09,35,7.20
2012,01,25,09,36,4.80
2012,01,25,09,37,5.90
2012,01,25,09,38,2.70
2012,01,25,09,39,8.30
2012,01,25,09,40,7.90
2012,01,25,09,41,9.00
2012,01,25,09,42,9.20
2012,01,25,09,43,9.40
2012,01,25,09,44,4.00
2012,01,25,09,45,6.20
2012,01,25,09,46,4.70
2012,01,25,09,47,7.10
2012,01,25,09,48,4.40
2012,01,25,09,49,6.50
2012,01,25,09,50,13.60
2012,01,25,09,51,9.50
2012,01,25,09,52,4.50
2012,01,25,09,53,5.10
2012,01,25,09,54,5.50
2012,01,25,09,55,2.10
2012,01,25,09,56,5.10
2012,01,25,09,57,3.50
2012,01,25,09,58,3.20
2012,01,25,09,59,5.00
2012,01,25,10,00,3.00
2012,01,25,10,01,2.40
2012,01,25,10,02,2.30
2012,01,25,10,03,7.40
2012,01,25,10,04,6.00
2012,01,25,10,05,4.00
2012,01,25,10,06,2.90
2012,01,25,10,07,5.60
2012,01,25,10,08,3.40
2012,01,25,10,09,5.10
2012,01,25,10,10,2.80
2012,01,25,10,11,4.00
2012,01,25,10,12,5.20
2012,01,25,10,13,5.80
2012,01,25,10,14,5.60
2012,01,25,10,15,6.30
2012,01,25,10,16,4.40
2012,01,25,10,17,5.10
2012,01,25,10,18,6.00
2012,01,25,10,19,7.50
2012,01,25,10,20,5.00
2012,01,25,10,21,6.10
2012,01,25,10,22,11.30
2012,01,25,10,23,10.50
2012,01,25,10,24,8.60
2012,01,25,10,25,6.50
2012,01,25,10,26,4.70
2012,01,25,10,27,3.40
2012,01,25,10,28,3.10
2012,01,25,10,29,4.90
2012,01,25,10,30,4.70
2012,01,25,10,31,1.90
2012,01,25,10,32,3.10
2012,01,25,10,33,8.30
2012,01,25,10,34,6.60
2012,01,25,10,35,5.80
2012,01,25,10,36,2.40
2012,01,25,10,37,0.50
2012,01,25,10,38,3.10
2012,01,25,10,39,3.80
2012,01,25,10,40,3.20
2012,01,25,10,41,2.40
2012,01,25,10,42,3.00
2012,01,25,10,43,7.40
2012,01,25,10,44,1.90
2012,01,25,10,45,2.40
2012,01,25,10,46,1.10
2012,01,25,10,47,3.10
2012,01,25,10,48,8.10
2012,01,25,10,49,5.80
2012,01,25,10,50,4.30
2012,01,25,10,51,5.40
2012,01,25,10,52,4.40
2012,01,25,10,53,10.70
2012,01,25,10,54,9.00
2012,01,25,10,55,6.40
2012,01,25,10,56,3.10
2012,01,25,10,57,6.30
2012,01,25,10,58,7.10
2012,01,25,10,59,7.30
2012,01,25,11,00,4.90
2012,01,25,11,01,7.60
2012,01,25,11,02,6.00
2012,01,25,11,03,4.90
2012,01,25,11,04,4.20
2012,01,25,11,05,5.10
2012,01,25,11,06,5.30
2012,01,25,11,07,5.80
2012,01,25,11,08,6.50
2012,01,25,11,09,5.30
2012,01,25,11,10,6.90
2012,01,25,11,11,5.10
2012,01,25,11,12,5.20
2012,01,25,11,13,6.40
2012,01,25,11,14,10.90
2012,01,25,11,15,8.30
2012,01,25,11,16,8.80
2012,01,25,11,17,12.00
2012,01,25,11,18,6.40
2012,01,25,11,19,8.70
2012,01,25,11,20,7.10
2012,01,25,11,21,9.20
2012,01,25,11,22,9.00
2012,01,25,11,23,11.40
2012,01,25,11,24,6.70
2012,01,25,11,25,13.10
2012,01,25,11,26,8.10
2012,01,25,11,27,17.00
2012,01,25,11,28,8.30
2012,01,25,11,29,8.00
2012,01,25,11,30,14.40
2012,01,25,11,31,9.20
2012,01,25,11,32,9.20
2012,01,25,11,33,20.00
2012,01,25,11,34,10.10
2012,01,25,11,35,6.80
2012,01,25,11,36,5.20
2012,01,25,11,37,5.80
2012,01,25,11,38,10.30
2012,01,25,11,39,11.90
2012,01,25,11,40,6.00
2012,01,25,11,41,7.80
2012,01,25,11,42,7.00
2012,01,25,11,43,9.10
2012,01,25,11,44,6.10
2012,01,25,11,45,7.50
2012,01,25,11,46,4.10
2012,01,25,11,47,12.20
2012,01,25,11,48,9.10
2012,01,25,11,49,9.40
2012,01,25,11,50,15.80
2012,01,25,11,51,9.20
2012,01,25,11,52,12.50
2012,01,25,11,53,7.30
2012,01,25,11,54,19.40
2012,01,25,11,55,15.80
2012,01,25,11,56,15.60
2012,01,25,11,57,11.70
2012,01,25,11,58,7.90
2012,01,25,11,59,8.70
2012,01,25,12,00,4.60
2012,01,25,12,01,12.00
2012,01,25,12,02,15.00
2012,01,25,12,03,11.70
2012,01,25,12,04,10.60
2012,01,25,12,05,12.40
2012,01,25,12,06,11.90
2012,01,25,12,07,7.90
2012,01,25,12,08,15.90
2012,01,25,12,09,11.50
2012,01,25,12,10,9.30
2012,01,25,12,11,16.90
2012,01,25,12,12,15.30
2012,01,25,12,13,17.60
2012,01,25,12,14,18.40
2012,01,25,12,15,19.00
2012,01,25,12,16,14.70
2012,01,25,12,17,16.40
2012,01,25,12,18,13.80
2012,01,25,12,19,15.20
2012,01,25,12,20,12.90
2012,01,25,12,21,14.40
2012,01,25,12,22,12.80
2012,01,25,12,23,16.10
2012,01,25,12,24,10.10
2012,01,25,12,25,9.60
2012,01,25,12,26,13.80
2012,01,25,12,27,13.50
2012,01,25,12,28,12.80
2012,01,25,12,29,7.00
2012,01,25,12,30,12.50
2012,01,25,12,31,17.20
2012,01,25,12,32,17.10
2012,01,25,12,33,14.80
2012,01,25,12,34,10.30
2012,01,25,12,35,8.90
2012,01,25,12,36,15.20
2012,01,25,12,37,13.20
2012,01,25,12,38,12.80
2012,01,25,12,39,9.20
2012,01,25,12,40,18.30
2012,01,25,12,41,15.20
2012,01,25,12,42,17.20
2012,01,25,12,43,15.60
2012,01,25,12,44,15.10
2012,01,25,12,45,12.90
2012,01,25,12,46,8.30
2012,01,25,12,47,7.60
2012,01,25,12,48,9.70
2012,01,25,12,49,6.10
2012,01,25,12,50,14.10
2012,01,25,12,51,10.70
2012,01,25,12,52,8.90
2012,01,25,12,53,9.70
2012,01,25,12,54,13.70
2012,01,25,12,55,13.60
2012,01,25,12,56,13.90
2012,01,25,12,57,8.20
2012,01,25,12,58,5.00
2012,01,25,12,59,13.80
2012,01,25,13,00,16.70
2012,01,25,13,01,18.30
2012,01,25,13,02,16.40
2012,01,25,13,03,8.30
2012,01,25,13,04,10.20
2012,01,25,13,05,11.70
2012,01,25,13,06,10.40
2012,01,25,13,07,12.10
2012,01,25,13,08,14.00
2012,01,25,13,09,8.30
2012,01,25,13,10,11.80
2012,01,25,13,11,9.70
2012,01,25,13,12,10.80
2012,01,25,13,13,6.00
2012,01,25,13,14,7.00
2012,01,25,13,15,7.10
2012,01,25,13,16,6.50
2012,01,25,13,17,9.30
2012,01,25,13,18,11.70
2012,01,25,13,19,10.90
2012,01,25,13,20,11.50
2012,01,25,13,21,15.70
2012,01,25,13,22,15.70
2012,01,25,13,23,17.90
2012,01,25,13,24,15.00
2012,01,25,13,25,11.40
2012,01,25,13,26,16.70
2012,01,25,13,27,13.00
2012,01,25,13,28,9.80
2012,01,25,13,29,10.60
2012,01,25,13,30,12.60
2012,01,25,13,31,6.00
2012,01,25,13,32,15.90
2012,01,25,13,33,17.60
2012,01,25,13,34,15.40
2012,01,25,13,35,14.60
2012,01,25,13,36,15.50
2012,01,25,13,37,15.60
2012,01,25,13,38,21.80
2012,01,25,13,39,16.30
2012,01,25,13,40,15.70
2012,01,25,13,41,16.30
2012,01,25,13,42,13.20
2012,01,25,13,43,14.30
2012,01,25,13,44,10.90
2012,01,25,13,45,12.00
2012,01,25,13,46,13.50
2012,01,25,13,47,13.40
2012,01,25,13,48,16.10
2012,01,25,13,49,13.50
2012,01,25,13,50,18.30
2012,01,25,13,51,18.60
2012,01,25,13,52,18.60
2012,01,25,13,53,13.50
2012,01,25,13,54,18.10
2012,01,25,13,55,15.30
2012,01,25,13,56,19.20
2012,01,25,13,57,20.20
2012,01,25,13,58,13.10
2012,01,25,13,59,15.90
2012,01,25,14,00,10.20
2012,01,25,14,01,13.90
2012,01,25,14,02,23.20
2012,01,25,14,03,20.00
2012,01,25,14,04,16.90
2012,01,25,14,05,20.60
2012,01,25,14,06,20.80
2012,01,25,14,07,23.30
2012,01,25,14,08,17.10
2012,01,25,14,09,10.70
2012,01,25,14,10,16.00
2012,01,25,14,11,14.70
2012,01,25,14,12,20.80
2012,01,25,14,13,14.30
2012,01,25,14,14,12.70
2012,01,25,14,15,17.60
2012,01,25,14,16,12.30
2012,01,25,14,17,14.50
2012,01,25,14,18,20.30
2012,01,25,14,19,20.20
2012,01,25,14,20,15.00
2012,01,25,14,21,15.50
2012,01,25,14,22,11.90
2012,01,25,14,23,17.30
2012,01,25,14,24,12.10
2012,01,25,14,25,8.20
2012,01,25,14,26,18.70
2012,01,25,14,27,18.00
2012,01,25,14,28,16.50
2012,01,25,14,29,19.90
2012,01,25,14,30,8.40
2012,01,25,14,31,12.90
2012,01,25,14,32,15.90
2012,01,25,14,33,15.90
2012,01,25,14,34,18.60
2012,01,25,14,35,13.80
2012,01,25,14,36,11.90
2012,01,25,14,37,17.70
2012,01,25,14,38,22.20
2012,01,25,14,39,14.20
2012,01,25,14,40,18.10
2012,01,25,14,41,16.70
2012,01,25,14,42,13.80
2012,01,25,14,43,14.40
2012,01,25,14,44,21.20
2012,01,25,14,45,24.00
2012,01,25,14,46,14.30
2012,01,25,14,47,14.80
2012,01,25,14,48,21.00
2012,01,25,14,49,18.50
2012,01,25,14,50,14.60
2012,01,25,14,51,20.50
2012,01,25,14,52,16.70
2012,01,25,14,53,14.20
2012,01,25,14,54,12.60
2012,01,25,14,55,21.90
2012,01,25,14,56,23.50
2012,01,25,14,57,15.30
2012,01,25,14,58,22.20
2012,01,25,14,59,14.10
2012,01,25,15,00,13.50
2012,01,25,15,01,19.00
2012,01,25,15,02,17.70
2012,01,25,15,03,19.80
2012,01,25,15,04,16.10
2012,01,25,15,05,16.50
2012,01,25,15,06,19.10
2012,01,25,15,07,17.30
2012,01,25,15,08,13.80
2012,01,25,15,09,16.80
2012,01,25,15,10,11.90
2012,01,25,15,11,10.50
2012,01,25,15,12,14.80
2012,01,25,15,13,18.60
2012,01,25,15,14,14.80
2012,01,25,15,15,14.60
2012,01,25,15,16,13.40
2012,01,25,15,17,17.10
2012,01,25,15,18,12.60
2012,01,25,15,19,13.80
2012,01,25,15,20,9.50
2012,01,25,15,21,11.40
2012,01,25,15,22,11.60
2012,01,25,15,23,16.90
2012,01,25,15,24,17.70
2012,01,25,15,25,14.00
2012,01,25,15,26,16.80
2012,01,25,15,27,18.20
2012,01,25,15,28,19.70
2012,01,25,15,29,15.40
2012,01,25,15,30,15.80
2012,01,25,15,31,15.70
2012,01,25,15,32,9.30
2012,01,25,15,33,14.60
2012,01,25,15,34,17.90
2012,01,25,15,35,18.50
2012,01,25,15,36,15.60
2012,01,25,15,37,10.30
2012,01,25,15,38,8.60
2012,01,25,15,39,18.90
2012,01,25,15,40,13.30
2012,01,25,15,41,11.40
2012,01,25,15,42,12.70
2012,01,25,15,43,21.20
2012,01,25,15,44,18.40
2012,01,25,15,45,18.80
2012,01,25,15,46,18.40
2012,01,25,15,47,20.20
2012,01,25,15,48,10.90
2012,01,25,15,49,11.60
2012,01,25,15,50,12.30
2012,01,25,15,51,18.70
2012,01,25,15,52,15.80
2012,01,25,15,53,19.60
2012,01,25,15,54,18.00
2012,01,25,15,55,12.20
2012,01,25,15,56,11.10
2012,01,25,15,57,15.50
2012,01,25,15,58,10.30
2012,01,25,15,59,7.90
2012,01,25,16,00,11.60
2012,01,25,16,01,14.20
2012,01,25,16,02,16.70
2012,01,25,16,03,11.80
2012,01,25,16,04,12.60
2012,01,25,16,05,17.10
2012,01,25,16,06,8.20
2012,01,25,16,07,10.80
2012,01,25,16,08,14.50
2012,01,25,16,09,10.60
2012,01,25,16,10,10.40
2012,01,25,16,11,14.60
2012,01,25,16,12,13.00
2012,01,25,16,13,8.30
2012,01,25,16,14,12.40
2012,01,25,16,15,16.90
2012,01,25,16,16,9.10
2012,01,25,16,17,13.60
2012,01,25,16,18,13.80
2012,01,25,16,19,9.00
2012,01,25,16,20,14.00
2012,01,25,16,21,13.10
2012,01,25,16,22,9.30
2012,01,25,16,23,9.90
2012,01,25,16,24,8.90
2012,01,25,16,25,7.60
2012,01,25,16,26,6.40
2012,01,25,16,27,9.20
2012,01,25,16,28,9.60
2012,01,25,16,29,10.30
2012,01,25,16,30,12.60
2012,01,25,16,31,13.30
2012,01,25,16,32,8.10
2012,01,25,16,33,8.10
2012,01,25,16,34,6.00
2012,01,25,16,35,15.40
2012,01,25,16,36,11.30
2012,01,25,16,37,10.60
2012,01,25,16,38,8.90
2012,01,25,16,39,15.70
2012,01,25,16,40,11.90
2012,01,25,16,41,16.10
2012,01,25,16,42,9.90
2012,01,25,16,43,8.20
2012,01,25,16,44,10.70
2012,01,25,16,45,11.90
2012,01,25,16,46,9.60
2012,01,25,16,47,8.10
2012,01,25,16,48,10.00
2012,01,25,16,49,9.70
2012,01,25,16,50,5.50
2012,01,25,16,51,3.60
2012,01,25,16,52,4.30
2012,01,25,16,53,5.10
2012,01,25,16,54,3.30
2012,01,25,16,55,3.20
2012,01,25,16,56,3.10
2012,01,25,16,57,4.30
2012,01,25,16,58,4.80
2012,01,25,16,59,1.90
2012,01,25,17,00,3.00
2012,01,25,17,01,7.50
2012,01,25,17,02,6.40
2012,01,25,17,03,3.10
2012,01,25,17,04,5.60
2012,01,25,17,05,3.80
2012,01,25,17,06,7.10
2012,01,25,17,07,4.20
2012,01,25,17,08,3.10
2012,01,25,17,09,3.70
2012,01,25,17,10,2.70
2012,01,25,17,11,3.90
2012,01,25,17,12,3.70
2012,01,25,17,13,2.80
2012,01,25,17,14,10.30
2012,01,25,17,15,5.20
2012,01,25,17,16,2.40
2012,01,25,17,17,2.40
2012,01,25,17,18,2.50
2012,01,25,17,19,0.80
2012,01,25,17,20,0.30
2012,01,25,17,21,3.30
2012,01,25,17,22,3.90
2012,01,25,17,23,3.70
2012,01,25,17,24,3.40
2012,01,25,17,25,2.60
2012,01,25,17,26,2.70
2012,01,25,17,27,2.10
2012,01,25,17,28,3.00
2012,01,25,17,29,1.80
2012,01,25,17,30,0.50
2012,01,25,17,31,0.80
2012,01,25,17,32,1.10
2012,01,25,17,33,1.20
2012,01,25,17,34,1.80
2012,01,25,17,35,1.70
2012,01,25,17,36,3.40
2012,01,25,17,37,1.90
2012,01,25,17,38,2.30
2012,01,25,17,39,2.90
2012,01,25,17,40,2.70
2012,01,25,17,41,1.40
2012,01,25,17,42,1.80
2012,01,25,17,43,2.60